Time,TemperatureF,DewpointF,PressureIn,WindDirection,WindDirectionDegrees,WindSpeedMPH,WindSpeedGustMPH,Humidity,HourlyPrecipIn,Conditions,Clouds,dailyrainin,SoftwareType,DateUTC
2013-03-09 00:00:00,37.8,25.5,30.02,North,351,10.0,20.0,61,0.00,RA,FEW,0.00,WeatherDisplay:10.37,2013-03-09 05:00:00,
2013-03-09 00:05:00,37.7,25.5,30.02,NNW,341,12.7,12.7,61,0.00,RA,FEW,0.00,WeatherDisplay:10.37,2013-03-09 05:05:00,
2013-03-09 00:10:00,37.7,25.5,30.02,NNW,346,24.2,24.2,61,0.00,CLR,FEW,0.00,WeatherDisplay:10.37,2013-03-09 05:10:00,
2013-03-09 00:15:00,37.7,25.1,30.02,NNW,330,15.0,15.0,60,0.00,CLR,FEW,0.00,WeatherDisplay:10.37,2013-03-09 05:15:00,
2013-03-09 00:20:00,37.7,25.1,30.02,NNW,341,11.5,11.5,60,0.00,CLR,FEW,0.00,WeatherDisplay:10.37,2013-03-09 05:20:00,
2013-03-09 00:25:00,37.5,24.9,30.02,NNW,343,18.4,18.4,60,0.00,CLR,FEW,0.00,WeatherDisplay:10.37,2013-03-09 05:25:00,
2013-03-09 00:30:00,37.4,24.8,30.01,North,356,19.6,19.6,60,0.00,CLR,FEW,0.00,WeatherDisplay:10.37,2013-03-09 05:30:00,
2013-03-09 00:35:00,37.5,24.9,30.01,NNW,344,15.0,15.0,60,0.00,CLR,FEW,0.00,WeatherDisplay:10.37,2013-03-09 05:35:00,
2013-03-09 00:40:00,37.3,24.7,30.01,NNW,346,15.0,15.0,60,0.00,CLR,FEW,0.00,WeatherDisplay:10.37,2013-03-09 05:40:00,
2013-03-09 00:45:00,37.3,24.7,30.02,NNW,345,11.5,11.5,60,0.00,CLR,FEW,0.00,WeatherDisplay:10.37,2013-03-09 05:45:00,
2013-03-09 00:50:00,37.2,24.6,30.02,NNE,21,19.6,19.6,60,0.00,CLR,FEW,0.00,WeatherDisplay:10.37,2013-03-09 05:50:00,
2013-03-09 00:55:00,37.1,24.9,30.02,North,355,11.5,11.5,61,0.00,CLR,FEW,0.00,WeatherDisplay:10.37,2013-03-09 05:55:00,
2013-03-09 01:00:00,37.1,24.9,30.03,NNW,342,13.8,13.8,61,0.00,CLR,FEW,0.00,WeatherDisplay:10.37,2013-03-09 06:00:00,
2013-03-09 01:05:00,37.0,24.8,30.03,North,357,13.8,13.8,61,0.00,CLR,FEW,0.00,WeatherDisplay:10.37,2013-03-09 06:05:00,
2013-03-09 01:10:00,37.0,24.8,30.02,North,1,19.6,19.6,61,0.00,CLR,FEW,0.00,WeatherDisplay:10.37,2013-03-09 06:10:00,
2013-03-09 01:15:00,37.1,24.5,30.02,North,349,21.9,21.9,60,0.00,CLR,FEW,0.00,WeatherDisplay:10.37,2013-03-09 06:15:00,
2013-03-09 01:20:00,37.3,24.7,30.03,NNE,12,17.0,17.0,60,0.00,CLR,FEW,0.00,WeatherDisplay:10.37,2013-03-09 06:20:00,
2013-03-09 01:25:00,37.1,24.5,30.02,NNW,343,19.6,19.6,60,0.00,CLR,FEW,0.00,WeatherDisplay:10.37,2013-03-09 06:25:00,
2013-03-09 01:30:00,37.0,24.4,30.02,North,4,17.3,17.3,60,0.00,CLR,FEW,0.00,WeatherDisplay:10.37,2013-03-09 06:30:00,
2013-03-09 01:35:00,37.0,24.4,30.02,North,354,11.5,11.5,60,0.00,CLR,FEW,0.00,WeatherDisplay:10.37,2013-03-09 06:35:00,
2013-03-09 01:40:00,36.8,24.6,30.02,North,4,20.7,20.7,61,0.00,CLR,FEW,0.00,WeatherDisplay:10.37,2013-03-09 06:40:00,
2013-03-09 01:45:00,36.7,24.1,30.02,NNE,14,20.7,20.7,60,0.00,CLR,FEW,0.00,WeatherDisplay:10.37,2013-03-09 06:45:00,
2013-03-09 01:50:00,36.7,24.1,30.02,NNW,335,12.7,13.0,60,0.00,CLR,FEW,0.00,WeatherDisplay:10.37,2013-03-09 06:50:00,
2013-03-09 01:55:00,36.7,24.1,30.02,NNE,17,17.3,17.3,60,0.00,CLR,FEW,0.00,WeatherDisplay:10.37,2013-03-09 06:55:00,
2013-03-09 02:00:00,36.6,24.0,30.03,NNW,338,22.0,22.0,60,0.00,CLR,FEW,0.00,WeatherDisplay:10.37,2013-03-09 07:00:00,
2013-03-09 02:05:00,36.6,24.0,30.02,North,7,12.7,12.7,60,0.00,CLR,FEW,0.00,WeatherDisplay:10.37,2013-03-09 07:05:00,
2013-03-09 02:10:00,36.6,24.0,30.02,NNE,14,20.7,20.7,60,0.00,CLR,FEW,0.00,WeatherDisplay:10.37,2013-03-09 07:10:00,
2013-03-09 02:15:00,36.6,24.0,30.02,North,357,20.7,20.7,60,0.00,CLR,FEW,0.00,WeatherDisplay:10.37,2013-03-09 07:15:00,
2013-03-09 02:20:00,36.5,23.5,30.02,NNW,347,15.0,15.0,59,0.00,CLR,FEW,0.00,WeatherDisplay:10.37,2013-03-09 07:20:00,
2013-03-09 02:25:00,36.5,23.9,30.02,North,358,15.0,15.0,60,0.00,CLR,FEW,0.00,WeatherDisplay:10.37,2013-03-09 07:25:00,
2013-03-09 02:30:00,36.4,23.4,30.01,North,5,15.0,15.0,59,0.00,CLR,FEW,0.00,WeatherDisplay:10.37,2013-03-09 07:30:00,
2013-03-09 02:35:00,36.3,23.7,30.01,North,1,18.4,18.4,60,0.00,CLR,FEW,0.00,WeatherDisplay:10.37,2013-03-09 07:35:00,
2013-03-09 02:40:00,36.3,23.7,30.02,North,3,16.1,16.1,60,0.00,CLR,FEW,0.00,WeatherDisplay:10.37,2013-03-09 07:40:00,
2013-03-09 02:45:00,36.1,23.5,30.02,North,0,9.2,9.2,60,0.00,CLR,FEW,0.00,WeatherDisplay:10.37,2013-03-09 07:45:00,
2013-03-09 02:50:00,36.0,23.4,30.01,North,0,8.0,8.0,60,0.00,CLR,FEW,0.00,WeatherDisplay:10.37,2013-03-09 07:50:00,
2013-03-09 02:55:00,35.8,23.3,30.02,North,6,15.0,15.0,60,0.00,CLR,FEW,0.00,WeatherDisplay:10.37,2013-03-09 07:55:00,
2013-03-09 03:00:00,35.7,23.2,30.02,North,0,8.1,8.1,60,0.00,CLR,FEW,0.00,WeatherDisplay:10.37,2013-03-09 08:00:00,
2013-03-09 03:05:00,35.7,23.2,30.02,North,357,11.5,11.5,60,0.00,CLR,FEW,0.00,WeatherDisplay:10.37,2013-03-09 08:05:00,
2013-03-09 03:10:00,35.7,23.2,30.02,North,11,9.2,9.2,60,0.00,CLR,FEW,0.00,WeatherDisplay:10.37,2013-03-09 08:10:00,
2013-03-09 03:15:00,35.5,23.0,30.02,North,355,10.4,10.4,60,0.00,CLR,FEW,0.00,WeatherDisplay:10.37,2013-03-09 08:15:00,
2013-03-09 03:20:00,35.6,23.9,30.01,NNW,333,12.7,12.7,62,0.00,CLR,FEW,0.00,WeatherDisplay:10.37,2013-03-09 08:20:00,
2013-03-09 03:25:00,35.6,23.5,30.02,North,7,11.5,11.5,61,0.00,CLR,FEW,0.00,WeatherDisplay:10.37,2013-03-09 08:25:00,
2013-03-09 03:30:00,35.5,23.0,30.02,North,11,11.5,11.5,60,0.00,CLR,FEW,0.00,WeatherDisplay:10.37,2013-03-09 08:30:00,
2013-03-09 03:35:00,35.6,23.1,30.01,North,10,9.2,9.2,60,0.00,CLR,FEW,0.00,WeatherDisplay:10.37,2013-03-09 08:35:00,
2013-03-09 03:40:00,35.6,23.1,30.02,North,6,12.7,12.7,60,0.00,CLR,FEW,0.00,WeatherDisplay:10.37,2013-03-09 08:40:00,
2013-03-09 03:45:00,35.5,23.0,30.02,NNE,19,11.5,11.5,60,0.00,CLR,FEW,0.00,WeatherDisplay:10.37,2013-03-09 08:45:00,
2013-03-09 03:50:00,35.5,23.4,30.02,North,9,17.3,17.3,61,0.00,CLR,FEW,0.00,WeatherDisplay:10.37,2013-03-09 08:50:00,
2013-03-09 03:55:00,35.4,22.9,30.02,North,353,15.0,15.0,60,0.00,CLR,FEW,0.00,WeatherDisplay:10.37,2013-03-09 08:55:00,
2013-03-09 04:00:00,35.5,23.4,30.03,North,356,19.0,19.0,61,0.00,CLR,FEW,0.00,WeatherDisplay:10.37,2013-03-09 09:00:00,
2013-03-09 04:05:00,35.4,22.9,30.02,North,355,16.0,16.0,60,0.00,CLR,FEW,0.00,WeatherDisplay:10.37,2013-03-09 09:05:00,
2013-03-09 04:10:00,35.5,23.0,30.03,North,358,16.1,16.1,60,0.00,CLR,FEW,0.00,WeatherDisplay:10.37,2013-03-09 09:10:00,
2013-03-09 04:15:00,35.6,23.1,30.03,North,350,12.7,12.7,60,0.00,CLR,FEW,0.00,WeatherDisplay:10.37,2013-03-09 09:15:00,
2013-03-09 04:20:00,35.5,23.0,30.03,NNW,341,15.0,15.0,60,0.00,CLR,FEW,0.00,WeatherDisplay:10.37,2013-03-09 09:20:00,
2013-03-09 04:25:00,35.5,23.0,30.04,NNW,336,15.0,15.0,60,0.00,CLR,FEW,0.00,WeatherDisplay:10.37,2013-03-09 09:25:00,
2013-03-09 04:30:00,35.4,22.9,30.04,NNW,340,16.1,16.1,60,0.00,CLR,FEW,0.00,WeatherDisplay:10.37,2013-03-09 09:30:00,
2013-03-09 04:35:00,35.5,22.6,30.04,NNW,341,23.0,23.0,59,0.00,CLR,FEW,0.00,WeatherDisplay:10.37,2013-03-09 09:35:00,
2013-03-09 04:40:00,35.4,22.9,30.04,NNW,343,10.4,10.4,60,0.00,CLR,FEW,0.00,WeatherDisplay:10.37,2013-03-09 09:40:00,
2013-03-09 04:45:00,35.3,22.8,30.04,NNE,17,10.4,10.4,60,0.00,CLR,FEW,0.00,WeatherDisplay:10.37,2013-03-09 09:45:00,
2013-03-09 04:50:00,35.2,22.7,30.05,NNW,345,14.0,14.0,60,0.00,CLR,FEW,0.00,WeatherDisplay:10.37,2013-03-09 09:50:00,
2013-03-09 04:55:00,35.2,22.7,30.05,NNW,339,9.0,9.0,60,0.00,CLR,FEW,0.00,WeatherDisplay:10.37,2013-03-09 09:55:00,
2013-03-09 05:00:00,35.2,22.7,30.06,NW,326,8.1,8.1,60,0.00,CLR,FEW,0.00,WeatherDisplay:10.37,2013-03-09 10:00:00,
2013-03-09 05:05:00,35.1,22.6,30.06,North,0,11.5,11.5,60,0.00,CLR,FEW,0.00,WeatherDisplay:10.37,2013-03-09 10:05:00,
2013-03-09 05:10:00,35.1,22.6,30.06,North,2,9.2,9.2,60,0.00,CLR,FEW,0.00,WeatherDisplay:10.37,2013-03-09 10:10:00,
2013-03-09 05:15:00,35.0,22.5,30.06,North,350,11.5,11.5,60,0.00,CLR,FEW,0.00,WeatherDisplay:10.37,2013-03-09 10:15:00,
2013-03-09 05:20:00,35.0,22.5,30.06,North,0,5.8,5.8,60,0.00,CLR,FEW,0.00,WeatherDisplay:10.37,2013-03-09 10:20:00,
2013-03-09 05:25:00,34.9,22.4,30.07,North,351,10.4,10.4,60,0.00,CLR,FEW,0.00,WeatherDisplay:10.37,2013-03-09 10:25:00,
2013-03-09 05:30:00,34.9,22.4,30.07,NNW,347,9.2,9.2,60,0.00,CLR,FEW,0.00,WeatherDisplay:10.37,2013-03-09 10:30:00,
2013-03-09 05:35:00,34.8,22.3,30.07,North,357,9.2,9.2,60,0.00,CLR,FEW,0.00,WeatherDisplay:10.37,2013-03-09 10:35:00,
2013-03-09 05:40:00,34.7,22.2,30.07,NNW,337,7.0,7.0,60,0.00,CLR,FEW,0.00,WeatherDisplay:10.37,2013-03-09 10:40:00,
2013-03-09 05:45:00,34.5,22.0,30.07,NNW,343,6.9,6.9,60,0.00,CLR,FEW,0.00,WeatherDisplay:10.37,2013-03-09 10:45:00,
2013-03-09 05:50:00,34.4,21.9,30.07,North,359,6.0,6.0,60,0.00,CLR,FEW,0.00,WeatherDisplay:10.37,2013-03-09 10:50:00,
2013-03-09 05:55:00,34.2,21.7,30.07,North,0,5.8,5.8,60,0.00,CLR,FEW,0.00,WeatherDisplay:10.37,2013-03-09 10:55:00,
2013-03-09 06:00:00,34.1,21.7,30.07,North,0,9.2,9.2,60,0.00,CLR,FEW,0.00,WeatherDisplay:10.37,2013-03-09 11:00:00,
2013-03-09 06:05:00,34.0,22.0,30.07,NNW,348,4.6,4.6,61,0.00,CLR,FEW,0.00,WeatherDisplay:10.37,2013-03-09 11:05:00,
2013-03-09 06:10:00,33.9,21.9,30.07,NNW,340,4.6,4.6,61,0.00,CLR,FEW,0.00,WeatherDisplay:10.37,2013-03-09 11:10:00,
2013-03-09 06:15:00,33.8,21.8,30.07,North,3,6.9,6.9,61,0.00,CLR,FEW,0.00,WeatherDisplay:10.37,2013-03-09 11:15:00,
2013-03-09 06:20:00,33.8,21.8,30.08,North,351,5.8,5.8,61,0.00,CLR,FEW,0.00,WeatherDisplay:10.37,2013-03-09 11:20:00,
2013-03-09 06:25:00,33.8,21.8,30.08,North,350,6.9,6.9,61,0.00,CLR,FEW,0.00,WeatherDisplay:10.37,2013-03-09 11:25:00,
2013-03-09 06:30:00,33.8,21.8,30.08,North,350,8.1,8.1,61,0.00,CLR,FEW,0.00,WeatherDisplay:10.37,2013-03-09 11:30:00,
2013-03-09 06:35:00,33.9,22.2,30.08,NNW,342,12.7,12.7,62,0.00,CLR,FEW,0.00,WeatherDisplay:10.37,2013-03-09 11:35:00,
2013-03-09 06:40:00,34.0,22.3,30.08,NW,316,11.5,11.5,62,0.00,CLR,FEW,0.00,WeatherDisplay:10.37,2013-03-09 11:40:00,
2013-03-09 06:45:00,34.1,22.4,30.08,North,354,6.0,6.0,62,0.00,CLR,FEW,0.00,WeatherDisplay:10.37,2013-03-09 11:45:00,
2013-03-09 06:50:00,34.1,22.0,30.08,NNW,337,9.2,9.2,61,0.00,CLR,FEW,0.00,WeatherDisplay:10.37,2013-03-09 11:50:00,
2013-03-09 06:55:00,34.3,22.6,30.08,North,351,9.2,9.2,62,0.00,CLR,FEW,0.00,WeatherDisplay:10.37,2013-03-09 11:55:00,
2013-03-09 07:00:00,34.5,22.4,30.09,North,351,6.9,6.9,61,0.00,CLR,FEW,0.00,WeatherDisplay:10.37,2013-03-09 12:00:00,
2013-03-09 07:05:00,34.6,22.5,30.09,North,9,6.9,6.9,61,0.00,CLR,FEW,0.00,WeatherDisplay:10.37,2013-03-09 12:05:00,
2013-03-09 07:10:00,34.8,22.7,30.09,NNW,347,10.0,10.0,61,0.00,CLR,FEW,0.00,WeatherDisplay:10.37,2013-03-09 12:10:00,
2013-03-09 07:15:00,35.0,22.9,30.09,North,2,11.5,11.5,61,0.00,CLR,FEW,0.00,WeatherDisplay:10.37,2013-03-09 12:15:00,
2013-03-09 07:20:00,35.1,22.6,30.09,North,2,11.5,11.5,60,0.00,CLR,FEW,0.00,WeatherDisplay:10.37,2013-03-09 12:20:00,
2013-03-09 07:25:00,35.4,22.9,30.09,North,5,12.7,12.7,60,0.00,CLR,FEW,0.00,WeatherDisplay:10.37,2013-03-09 12:25:00,
2013-03-09 07:30:00,35.5,23.0,30.09,North,8,11.5,11.5,60,0.00,CLR,FEW,0.00,WeatherDisplay:10.37,2013-03-09 12:30:00,
2013-03-09 07:35:00,35.6,23.1,30.09,North,6,6.9,7.1,60,0.00,CLR,FEW,0.00,WeatherDisplay:10.37,2013-03-09 12:35:00,
2013-03-09 07:40:00,35.7,22.8,30.09,NNE,23,13.8,13.8,59,0.00,CLR,FEW,0.00,WeatherDisplay:10.37,2013-03-09 12:40:00,
2013-03-09 07:45:00,35.8,22.9,30.09,NNE,20,10.4,10.4,59,0.00,CLR,FEW,0.00,WeatherDisplay:10.37,2013-03-09 12:45:00,
2013-03-09 07:50:00,35.9,23.0,30.09,NNE,15,12.7,12.7,59,0.00,CLR,FEW,0.00,WeatherDisplay:10.37,2013-03-09 12:50:00,
2013-03-09 07:55:00,36.0,23.0,30.10,North,8,10.4,10.4,59,0.00,CLR,FEW,0.00,WeatherDisplay:10.37,2013-03-09 12:55:00,
2013-03-09 08:00:00,36.2,22.8,30.10,NNE,13,11.5,11.5,58,0.00,CLR,FEW,0.00,WeatherDisplay:10.37,2013-03-09 13:00:00,
2013-03-09 08:05:00,36.4,23.0,30.10,NNE,27,15.0,15.0,58,0.00,CLR,FEW,0.00,WeatherDisplay:10.37,2013-03-09 13:05:00,
2013-03-09 08:10:00,36.5,23.1,30.10,NNE,17,9.2,9.2,58,0.00,CLR,FEW,0.00,WeatherDisplay:10.37,2013-03-09 13:10:00,
2013-03-09 08:15:00,36.6,23.2,30.10,NNE,15,6.9,6.9,58,0.00,CLR,FEW,0.00,WeatherDisplay:10.37,2013-03-09 13:15:00,
2013-03-09 08:20:00,37.0,23.2,30.10,NNW,344,9.2,9.2,57,0.00,CLR,FEW,0.00,WeatherDisplay:10.37,2013-03-09 13:20:00,
2013-03-09 08:25:00,37.0,23.2,30.10,North,4,12.7,12.7,57,0.00,CLR,FEW,0.00,WeatherDisplay:10.37,2013-03-09 13:25:00,
2013-03-09 08:30:00,37.0,23.2,30.10,NNE,32,9.2,9.2,57,0.00,CLR,FEW,0.00,WeatherDisplay:10.37,2013-03-09 13:30:00,
2013-03-09 08:35:00,37.2,23.4,30.11,NE,45,10.4,10.4,57,0.00,CLR,FEW,0.00,WeatherDisplay:10.37,2013-03-09 13:35:00,
2013-03-09 08:40:00,37.2,23.4,30.10,North,8,9.2,9.2,57,0.00,CLR,FEW,0.00,WeatherDisplay:10.37,2013-03-09 13:40:00,
2013-03-09 08:45:00,37.4,24.0,30.10,North,3,8.1,8.1,58,0.00,CLR,FEW,0.00,WeatherDisplay:10.37,2013-03-09 13:45:00,
2013-03-09 08:50:00,37.6,23.3,30.10,North,0,10.4,10.4,56,0.00,CLR,FEW,0.00,WeatherDisplay:10.37,2013-03-09 13:50:00,
2013-03-09 08:55:00,37.7,23.8,30.10,North,357,11.5,11.5,57,0.00,CLR,FEW,0.00,WeatherDisplay:10.37,2013-03-09 13:55:00,
2013-03-09 09:00:00,37.9,23.2,30.11,NNE,22,9.2,9.2,55,0.00,CLR,FEW,0.00,WeatherDisplay:10.37,2013-03-09 14:00:00,
2013-03-09 09:05:00,38.0,23.3,30.11,NE,34,8.1,8.1,55,0.00,CLR,FEW,0.00,WeatherDisplay:10.37,2013-03-09 14:05:00,
2013-03-09 09:10:00,38.3,23.5,30.10,North,0,9.2,9.2,55,0.00,CLR,FEW,0.00,WeatherDisplay:10.37,2013-03-09 14:10:00,
2013-03-09 09:15:00,38.5,23.7,30.10,NNE,13,10.4,10.4,55,0.00,CLR,FEW,0.00,WeatherDisplay:10.37,2013-03-09 14:15:00,
2013-03-09 09:20:00,38.7,23.9,30.10,North,355,8.1,8.1,55,0.00,CLR,FEW,0.00,WeatherDisplay:10.37,2013-03-09 14:20:00,
2013-03-09 09:25:00,39.1,23.8,30.10,North,4,9.2,9.2,54,0.00,CLR,FEW,0.00,WeatherDisplay:10.37,2013-03-09 14:25:00,
2013-03-09 09:30:00,39.2,24.4,30.11,NNE,19,8.1,8.1,55,0.00,CLR,FEW,0.00,WeatherDisplay:10.37,2013-03-09 14:30:00,
2013-03-09 09:35:00,39.3,23.6,30.10,NNW,342,4.6,4.6,53,0.00,CLR,FEW,0.00,WeatherDisplay:10.37,2013-03-09 14:35:00,
2013-03-09 09:40:00,39.5,23.8,30.10,NE,41,8.1,8.1,53,0.00,CLR,FEW,0.00,WeatherDisplay:10.37,2013-03-09 14:40:00,
2013-03-09 09:45:00,39.6,23.9,30.11,NNE,27,10.4,10.4,53,0.00,CLR,FEW,0.00,WeatherDisplay:10.37,2013-03-09 14:45:00,
2013-03-09 09:50:00,39.8,24.0,30.11,North,0,6.9,6.9,53,0.00,CLR,FEW,0.00,WeatherDisplay:10.37,2013-03-09 14:50:00,
2013-03-09 09:55:00,40.2,24.4,30.10,NNW,342,6.9,6.9,53,0.00,CLR,FEW,0.00,WeatherDisplay:10.37,2013-03-09 14:55:00,
2013-03-09 10:00:00,40.5,24.2,30.11,NNW,335,13.8,13.8,52,0.00,CLR,FEW,0.00,WeatherDisplay:10.37,2013-03-09 15:00:00,
2013-03-09 10:05:00,40.7,24.0,30.11,NNW,333,11.0,11.0,51,0.00,CLR,FEW,0.00,WeatherDisplay:10.37,2013-03-09 15:05:00,
2013-03-09 10:10:00,40.7,23.5,30.10,North,2,12.7,12.7,50,0.00,CLR,FEW,0.00,WeatherDisplay:10.37,2013-03-09 15:10:00,
2013-03-09 10:15:00,40.9,23.7,30.10,NNW,342,15.0,15.0,50,0.00,CLR,FEW,0.00,WeatherDisplay:10.37,2013-03-09 15:15:00,
2013-03-09 10:20:00,41.0,23.3,30.10,North,0,16.1,16.1,49,0.00,CLR,FEW,0.00,WeatherDisplay:10.37,2013-03-09 15:20:00,
2013-03-09 10:25:00,41.2,23.5,30.10,North,1,15.0,15.0,49,0.00,CLR,FEW,0.00,WeatherDisplay:10.37,2013-03-09 15:25:00,
2013-03-09 10:30:00,41.5,23.7,30.10,NNW,345,10.0,10.0,49,0.00,CLR,FEW,0.00,WeatherDisplay:10.37,2013-03-09 15:30:00,
2013-03-09 10:35:00,41.8,23.5,30.10,NNW,327,13.0,13.0,48,0.00,CLR,FEW,0.00,WeatherDisplay:10.37,2013-03-09 15:35:00,
2013-03-09 10:40:00,42.1,23.8,30.10,North,352,16.0,16.0,48,0.00,CLR,FEW,0.00,WeatherDisplay:10.37,2013-03-09 15:40:00,
2013-03-09 10:45:00,42.1,23.3,30.10,North,358,18.4,18.4,47,0.00,CLR,FEW,0.00,WeatherDisplay:10.37,2013-03-09 15:45:00,
2013-03-09 10:50:00,42.1,22.8,30.10,North,357,18.4,18.4,46,0.00,CLR,FEW,0.00,WeatherDisplay:10.37,2013-03-09 15:50:00,
2013-03-09 10:55:00,42.3,23.0,30.09,North,350,11.5,11.5,46,0.00,CLR,FEW,0.00,WeatherDisplay:10.37,2013-03-09 15:55:00,
2013-03-09 11:00:00,42.6,23.2,30.10,NNW,340,12.7,12.7,46,0.00,CLR,FEW,0.00,WeatherDisplay:10.37,2013-03-09 16:00:00,
2013-03-09 11:05:00,42.9,23.5,30.09,North,4,16.1,16.1,46,0.00,CLR,FEW,0.00,WeatherDisplay:10.37,2013-03-09 16:05:00,
2013-03-09 11:10:00,43.0,24.1,30.10,North,358,13.8,13.8,47,0.00,CLR,FEW,0.00,WeatherDisplay:10.37,2013-03-09 16:10:00,
2013-03-09 11:15:00,43.3,23.9,30.09,North,353,13.0,13.0,46,0.00,CLR,FEW,0.00,WeatherDisplay:10.37,2013-03-09 16:15:00,
2013-03-09 11:20:00,43.5,23.5,30.09,NNW,344,12.7,12.7,45,0.00,CLR,FEW,0.00,WeatherDisplay:10.37,2013-03-09 16:20:00,
2013-03-09 11:25:00,43.9,23.9,30.09,North,349,12.7,12.7,45,0.00,CLR,FEW,0.00,WeatherDisplay:10.37,2013-03-09 16:25:00,
2013-03-09 11:30:00,44.2,23.6,30.09,NNW,346,13.0,13.0,44,0.00,CLR,FEW,0.00,WeatherDisplay:10.37,2013-03-09 16:30:00,
2013-03-09 11:35:00,44.4,23.8,30.09,NNW,345,11.5,11.5,44,0.00,CLR,FEW,0.00,WeatherDisplay:10.37,2013-03-09 16:35:00,
2013-03-09 11:40:00,44.7,23.5,30.09,North,2,8.1,8.1,43,0.00,CLR,FEW,0.00,WeatherDisplay:10.37,2013-03-09 16:40:00,
2013-03-09 11:45:00,45.1,23.3,30.09,North,2,11.5,11.5,42,0.00,CLR,FEW,0.00,WeatherDisplay:10.37,2013-03-09 16:45:00,
2013-03-09 11:51:00,45.2,23.4,30.09,NNW,334,11.5,11.5,42,0.00,CLR,FEW,0.00,WeatherDisplay:10.37,2013-03-09 16:51:00,
2013-03-09 11:56:00,45.4,23.0,30.09,North,356,13.0,13.0,41,0.00,CLR,FEW,0.00,WeatherDisplay:10.37,2013-03-09 16:56:00,
2013-03-09 12:01:00,45.7,23.3,30.09,North,354,11.5,11.5,41,0.00,CLR,FEW,0.00,WeatherDisplay:10.37,2013-03-09 17:01:00,
2013-03-09 12:06:00,46.0,23.6,30.09,NNE,13,11.5,11.5,41,0.00,CLR,FEW,0.00,WeatherDisplay:10.37,2013-03-09 17:06:00,
2013-03-09 12:11:00,46.5,23.4,30.08,NNW,332,10.0,10.0,40,0.00,CLR,FEW,0.00,WeatherDisplay:10.37,2013-03-09 17:11:00,
2013-03-09 12:16:00,46.8,23.1,30.08,NW,322,11.5,11.5,39,0.00,CLR,FEW,0.00,WeatherDisplay:10.37,2013-03-09 17:16:00,
2013-03-09 12:21:00,46.8,23.7,30.08,North,4,11.5,11.5,40,0.00,CLR,FEW,0.00,WeatherDisplay:10.37,2013-03-09 17:21:00,
2013-03-09 12:26:00,47.1,24.0,30.08,NNW,338,9.2,9.2,40,0.00,CLR,FEW,0.00,WeatherDisplay:10.37,2013-03-09 17:26:00,
2013-03-09 12:31:00,47.2,23.5,30.08,North,354,12.7,12.7,39,0.00,CLR,FEW,0.00,WeatherDisplay:10.37,2013-03-09 17:31:00,
2013-03-09 12:36:00,47.5,23.7,30.07,North,4,11.5,11.5,39,0.00,CLR,FEW,0.00,WeatherDisplay:10.37,2013-03-09 17:36:00,
2013-03-09 12:41:00,47.6,23.8,30.07,North,6,10.4,10.4,39,0.00,CLR,FEW,0.00,WeatherDisplay:10.37,2013-03-09 17:41:00,
2013-03-09 12:46:00,47.9,24.1,30.07,NNW,334,5.0,5.0,39,0.00,CLR,FEW,0.00,WeatherDisplay:10.37,2013-03-09 17:46:00,
2013-03-09 12:51:00,48.5,24.0,30.06,NNW,347,9.2,9.2,38,0.00,CLR,FEW,0.00,WeatherDisplay:10.37,2013-03-09 17:51:00,
2013-03-09 12:56:00,48.6,23.5,30.06,NNE,22,10.4,10.4,37,0.00,CLR,FEW,0.00,WeatherDisplay:10.37,2013-03-09 17:56:00,
2013-03-09 13:01:00,48.6,23.5,30.06,North,4,11.5,11.5,37,0.00,CLR,FEW,0.00,WeatherDisplay:10.37,2013-03-09 18:01:00,
2013-03-09 13:06:00,48.8,23.0,30.06,North,8,9.2,9.2,36,0.00,CLR,FEW,0.00,WeatherDisplay:10.37,2013-03-09 18:06:00,
2013-03-09 13:11:00,48.6,22.8,30.05,North,2,9.2,9.2,36,0.00,CLR,FEW,0.00,WeatherDisplay:10.37,2013-03-09 18:11:00,
2013-03-09 13:16:00,48.6,23.5,30.05,North,2,10.4,10.4,37,0.00,CLR,FEW,0.00,WeatherDisplay:10.37,2013-03-09 18:16:00,
2013-03-09 13:21:00,48.7,23.6,30.05,NNE,16,13.0,13.0,37,0.00,CLR,FEW,0.00,WeatherDisplay:10.37,2013-03-09 18:21:00,
2013-03-09 13:26:00,48.7,22.9,30.05,NNW,342,11.5,11.5,36,0.00,CLR,FEW,0.00,WeatherDisplay:10.37,2013-03-09 18:26:00,
2013-03-09 13:31:00,48.8,23.6,30.05,NE,36,11.5,11.5,37,0.00,CLR,FEW,0.00,WeatherDisplay:10.37,2013-03-09 18:31:00,
2013-03-09 13:36:00,48.9,23.1,30.04,North,5,11.0,11.0,36,0.00,CLR,FEW,0.00,WeatherDisplay:10.37,2013-03-09 18:36:00,
2013-03-09 13:41:00,49.3,23.4,30.04,NW,319,11.5,11.5,36,0.00,CLR,FEW,0.00,WeatherDisplay:10.37,2013-03-09 18:41:00,
2013-03-09 13:46:00,49.4,22.9,30.05,North,5,11.5,11.5,35,0.00,CLR,FEW,0.00,WeatherDisplay:10.37,2013-03-09 18:46:00,
2013-03-09 13:51:00,49.5,22.3,30.05,North,4,11.5,11.5,34,0.00,CLR,FEW,0.00,WeatherDisplay:10.37,2013-03-09 18:51:00,
2013-03-09 13:56:00,49.7,22.4,30.04,North,358,11.5,11.5,34,0.00,CLR,FEW,0.00,WeatherDisplay:10.37,2013-03-09 18:56:00,
2013-03-09 14:01:00,49.6,22.3,30.05,NNE,23,7.0,7.0,34,0.00,CLR,FEW,0.00,WeatherDisplay:10.37,2013-03-09 19:01:00,
2013-03-09 14:06:00,50.1,23.5,30.05,NNE,18,9.2,9.2,35,0.00,CLR,FEW,0.00,WeatherDisplay:10.37,2013-03-09 19:06:00,
2013-03-09 14:11:00,50.6,23.9,30.05,North,7,9.2,9.2,35,0.00,CLR,FEW,0.00,WeatherDisplay:10.37,2013-03-09 19:11:00,
2013-03-09 14:16:00,50.6,23.9,30.05,NNE,18,9.2,9.2,35,0.00,CLR,FEW,0.00,WeatherDisplay:10.37,2013-03-09 19:16:00,
2013-03-09 14:21:00,50.8,22.7,30.05,NNW,330,13.8,13.8,33,0.00,CLR,FEW,0.00,WeatherDisplay:10.37,2013-03-09 19:21:00,
2013-03-09 14:26:00,50.9,22.8,30.05,NNW,343,11.5,11.5,33,0.00,CLR,FEW,0.00,WeatherDisplay:10.37,2013-03-09 19:26:00,
2013-03-09 14:31:00,51.1,21.5,30.04,North,9,10.0,10.0,31,0.00,CLR,FEW,0.00,WeatherDisplay:10.37,2013-03-09 19:31:00,
2013-03-09 14:36:00,51.1,21.5,30.05,North,356,11.5,11.5,31,0.00,CLR,FEW,0.00,WeatherDisplay:10.37,2013-03-09 19:36:00,
2013-03-09 14:41:00,51.2,20.8,30.05,North,359,13.8,13.8,30,0.00,CLR,FEW,0.00,WeatherDisplay:10.37,2013-03-09 19:41:00,
2013-03-09 14:46:00,51.2,20.0,30.05,NNE,12,11.5,11.5,29,0.00,CLR,FEW,0.00,WeatherDisplay:10.37,2013-03-09 19:46:00,
2013-03-09 14:51:00,51.3,19.3,30.05,North,354,11.5,11.5,28,0.00,CLR,FEW,0.00,WeatherDisplay:10.37,2013-03-09 19:51:00,
2013-03-09 14:56:00,51.3,19.3,30.05,NNW,345,12.7,12.7,28,0.00,CLR,FEW,0.00,WeatherDisplay:10.37,2013-03-09 19:56:00,
2013-03-09 15:01:00,51.6,20.3,30.06,NW,317,13.8,13.8,29,0.00,CLR,FEW,0.00,WeatherDisplay:10.37,2013-03-09 20:01:00,
2013-03-09 15:06:00,51.7,18.7,30.05,North,5,11.5,11.5,27,0.00,CLR,FEW,0.00,WeatherDisplay:10.37,2013-03-09 20:06:00,
2013-03-09 15:11:00,51.6,18.7,30.05,North,359,12.7,12.7,27,0.00,CLR,FEW,0.00,WeatherDisplay:10.37,2013-03-09 20:11:00,
2013-03-09 15:16:00,51.6,18.7,30.06,North,350,11.5,11.5,27,0.00,CLR,FEW,0.00,WeatherDisplay:10.37,2013-03-09 20:16:00,
2013-03-09 15:21:00,51.7,18.7,30.06,North,356,15.0,15.0,27,0.00,CLR,FEW,0.00,WeatherDisplay:10.37,2013-03-09 20:21:00,
2013-03-09 15:26:00,51.9,18.9,30.06,NNW,340,11.5,11.5,27,0.00,CLR,FEW,0.00,WeatherDisplay:10.37,2013-03-09 20:26:00,
2013-03-09 15:31:00,52.2,19.2,30.06,NNE,13,9.2,9.2,27,0.00,CLR,FEW,0.00,WeatherDisplay:10.37,2013-03-09 20:31:00,
2013-03-09 15:36:00,52.3,19.3,30.06,NNE,12,11.5,11.5,27,0.00,CLR,FEW,0.00,WeatherDisplay:10.37,2013-03-09 20:36:00,
2013-03-09 15:41:00,52.3,19.3,30.06,North,359,10.4,10.4,27,0.00,CLR,FEW,0.00,WeatherDisplay:10.37,2013-03-09 20:41:00,
2013-03-09 15:46:00,52.3,19.3,30.06,North,351,13.8,13.8,27,0.00,CLR,FEW,0.00,WeatherDisplay:10.37,2013-03-09 20:46:00,
2013-03-09 15:51:00,52.1,19.1,30.06,NNW,346,10.4,10.4,27,0.00,CLR,FEW,0.00,WeatherDisplay:10.37,2013-03-09 20:51:00,
2013-03-09 15:56:00,52.2,19.2,30.06,NNW,348,8.1,8.1,27,0.00,CLR,FEW,0.00,WeatherDisplay:10.37,2013-03-09 20:56:00,
2013-03-09 16:01:00,52.4,19.3,30.06,NNW,331,14.0,14.0,27,0.00,CLR,FEW,0.00,WeatherDisplay:10.37,2013-03-09 21:01:00,
2013-03-09 16:06:00,52.2,19.2,30.06,North,0,11.5,11.5,27,0.00,CLR,FEW,0.00,WeatherDisplay:10.37,2013-03-09 21:06:00,
2013-03-09 16:11:00,52.3,19.3,30.06,NNE,28,10.4,10.4,27,0.00,CLR,FEW,0.00,WeatherDisplay:10.37,2013-03-09 21:11:00,
2013-03-09 16:16:00,52.4,19.3,30.06,NNW,330,8.1,8.1,27,0.00,CLR,FEW,0.00,WeatherDisplay:10.37,2013-03-09 21:16:00,
2013-03-09 16:21:00,52.4,19.3,30.06,North,354,11.5,11.5,27,0.00,CLR,FEW,0.00,WeatherDisplay:10.37,2013-03-09 21:21:00,
2013-03-09 16:26:00,52.5,19.4,30.06,North,3,13.8,13.8,27,0.00,CLR,FEW,0.00,WeatherDisplay:10.37,2013-03-09 21:26:00,
2013-03-09 16:31:00,52.3,19.3,30.05,North,354,11.5,11.5,27,0.00,CLR,FEW,0.00,WeatherDisplay:10.37,2013-03-09 21:31:00,
2013-03-09 16:36:00,52.4,19.3,30.06,North,1,15.0,15.0,27,0.00,CLR,FEW,0.00,WeatherDisplay:10.37,2013-03-09 21:36:00,
2013-03-09 16:41:00,52.3,19.3,30.05,NNW,329,9.2,9.2,27,0.00,CLR,FEW,0.00,WeatherDisplay:10.37,2013-03-09 21:41:00,
2013-03-09 16:46:00,52.4,19.3,30.06,North,356,9.2,9.2,27,0.00,CLR,FEW,0.00,WeatherDisplay:10.37,2013-03-09 21:46:00,
2013-03-09 16:51:00,52.4,19.3,30.06,North,0,4.6,4.6,27,0.00,CLR,FEW,0.00,WeatherDisplay:10.37,2013-03-09 21:51:00,
2013-03-09 16:56:00,52.4,19.3,30.05,NNW,331,9.2,9.2,27,0.00,CLR,FEW,0.00,WeatherDisplay:10.37,2013-03-09 21:56:00,
2013-03-09 17:01:00,52.4,19.3,30.05,NNW,333,9.2,9.2,27,0.00,CLR,FEW,0.00,WeatherDisplay:10.37,2013-03-09 22:01:00,
2013-03-09 17:06:00,52.3,19.3,30.06,North,353,6.9,6.9,27,0.00,CLR,FEW,0.00,WeatherDisplay:10.37,2013-03-09 22:06:00,
2013-03-09 17:11:00,52.1,18.2,30.05,NNW,345,5.8,5.8,26,0.00,CLR,FEW,0.00,WeatherDisplay:10.37,2013-03-09 22:11:00,
2013-03-09 17:16:00,52.1,18.2,30.06,NNW,342,5.8,5.8,26,0.00,CLR,FEW,0.00,WeatherDisplay:10.37,2013-03-09 22:16:00,
2013-03-09 17:21:00,52.0,19.0,30.06,NNW,341,3.5,3.5,27,0.00,CLR,FEW,0.00,WeatherDisplay:10.37,2013-03-09 22:21:00,
2013-03-09 17:26:00,52.0,19.0,30.06,NNW,345,5.8,5.8,27,0.00,CLR,FEW,0.00,WeatherDisplay:10.37,2013-03-09 22:26:00,
2013-03-09 17:31:00,51.8,18.0,30.06,North,7,1.2,1.2,26,0.00,CLR,FEW,0.00,WeatherDisplay:10.37,2013-03-09 22:31:00,
2013-03-09 17:36:00,51.7,17.9,30.06,North,2,6.9,6.9,26,0.00,CLR,FEW,0.00,WeatherDisplay:10.37,2013-03-09 22:36:00,
2013-03-09 17:41:00,51.5,17.7,30.07,NNE,19,4.6,4.6,26,0.00,CLR,FEW,0.00,WeatherDisplay:10.37,2013-03-09 22:41:00,
2013-03-09 17:46:00,51.2,17.4,30.07,NNE,18,3.5,3.5,26,0.00,CLR,FEW,0.00,WeatherDisplay:10.37,2013-03-09 22:46:00,
2013-03-09 17:51:00,50.8,18.0,30.07,NNE,17,3.5,3.5,27,0.00,CLR,FEW,0.00,WeatherDisplay:10.37,2013-03-09 22:51:00,
2013-03-09 17:56:00,50.5,17.7,30.07,NNE,15,2.3,2.3,27,0.00,CLR,FEW,0.00,WeatherDisplay:10.37,2013-03-09 22:56:00,
2013-03-09 18:01:00,50.3,17.5,30.07,North,0,3.5,3.5,27,0.00,CLR,FEW,0.00,WeatherDisplay:10.37,2013-03-09 23:01:00,
2013-03-09 18:06:00,50.0,17.3,30.07,North,0,2.3,2.3,27,0.00,CLR,FEW,0.00,WeatherDisplay:10.37,2013-03-09 23:06:00,
2013-03-09 18:11:00,49.8,17.1,30.07,North,0,1.2,1.2,27,0.00,CLR,FEW,0.00,WeatherDisplay:10.37,2013-03-09 23:11:00,
2013-03-09 18:16:00,49.6,16.9,30.07,North,0,4.0,4.0,27,0.00,CLR,FEW,0.00,WeatherDisplay:10.37,2013-03-09 23:16:00,
2013-03-09 18:21:00,49.5,16.9,30.08,North,0,1.2,1.2,27,0.00,CLR,FEW,0.00,WeatherDisplay:10.37,2013-03-09 23:21:00,
2013-03-09 18:26:00,49.3,17.5,30.08,North,0,3.5,3.5,28,0.00,CLR,FEW,0.00,WeatherDisplay:10.37,2013-03-09 23:26:00,
2013-03-09 18:31:00,49.2,17.4,30.08,North,0,3.5,3.5,28,0.00,CLR,FEW,0.00,WeatherDisplay:10.37,2013-03-09 23:31:00,
2013-03-09 18:36:00,49.0,17.3,30.08,North,0,3.5,3.5,28,0.00,CLR,FEW,0.00,WeatherDisplay:10.37,2013-03-09 23:36:00,
2013-03-09 18:41:00,48.8,17.1,30.08,North,0,3.5,3.5,28,0.00,CLR,FEW,0.00,WeatherDisplay:10.37,2013-03-09 23:41:00,
2013-03-09 18:46:00,48.7,17.8,30.08,North,0,3.5,3.5,29,0.00,CLR,FEW,0.00,WeatherDisplay:10.37,2013-03-09 23:46:00,
2013-03-09 18:51:00,48.4,18.3,30.09,North,0,1.2,1.2,30,0.00,CLR,FEW,0.00,WeatherDisplay:10.37,2013-03-09 23:51:00,
2013-03-09 18:56:00,48.3,18.3,30.09,North,0,1.2,1.2,30,0.00,CLR,FEW,0.00,WeatherDisplay:10.37,2013-03-09 23:56:00,
2013-03-09 19:01:00,48.0,18.0,30.09,North,0,1.2,1.2,30,0.00,CLR,FEW,0.00,WeatherDisplay:10.37,2013-03-10 00:01:00,
2013-03-09 19:06:00,47.7,19.2,30.09,North,0,1.2,1.2,32,0.00,CLR,FEW,0.00,WeatherDisplay:10.37,2013-03-10 00:06:00,
2013-03-09 19:11:00,47.5,18.3,30.09,North,0,2.3,2.3,31,0.00,CLR,FEW,0.00,WeatherDisplay:10.37,2013-03-10 00:11:00,
2013-03-09 19:16:00,47.3,18.9,30.09,North,0,4.0,4.0,32,0.00,CLR,FEW,0.00,WeatherDisplay:10.37,2013-03-10 00:16:00,
2013-03-09 19:21:00,47.2,18.8,30.09,North,0,2.3,2.3,32,0.00,CLR,FEW,0.00,WeatherDisplay:10.37,2013-03-10 00:21:00,
2013-03-09 19:26:00,47.1,19.4,30.09,North,0,1.2,1.2,33,0.00,CLR,FEW,0.00,WeatherDisplay:10.37,2013-03-10 00:26:00,
2013-03-09 19:31:00,46.8,19.2,30.10,North,359,1.2,0.0,33,0.00,CLR,FEW,0.00,WeatherDisplay:10.37,2013-03-10 00:31:00,
2013-03-09 19:36:00,46.6,19.0,30.10,North,0,1.2,1.2,33,0.00,CLR,FEW,0.00,WeatherDisplay:10.37,2013-03-10 00:36:00,
2013-03-09 19:41:00,46.3,19.4,30.11,North,0,1.2,1.2,34,0.00,CLR,FEW,0.00,WeatherDisplay:10.37,2013-03-10 00:41:00,
2013-03-09 19:46:00,45.9,19.8,30.10,North,0,1.2,1.2,35,0.00,CLR,FEW,0.00,WeatherDisplay:10.37,2013-03-10 00:46:00,
2013-03-09 19:51:00,45.5,19.4,30.10,North,0,2.3,2.3,35,0.00,CLR,FEW,0.00,WeatherDisplay:10.37,2013-03-10 00:51:00,
2013-03-09 19:56:00,44.9,18.9,30.10,North,0,4.6,4.6,35,0.00,CLR,FEW,0.00,WeatherDisplay:10.37,2013-03-10 00:56:00,
2013-03-09 20:01:00,44.9,19.5,30.11,North,1,5.8,5.8,36,0.00,CLR,FEW,0.00,WeatherDisplay:10.37,2013-03-10 01:01:00,
2013-03-09 20:06:00,44.9,19.5,30.10,North,1,4.6,4.6,36,0.00,CLR,FEW,0.00,WeatherDisplay:10.37,2013-03-10 01:06:00,
2013-03-09 20:11:00,44.8,20.1,30.10,North,2,3.5,3.5,37,0.00,CLR,FEW,0.00,WeatherDisplay:10.37,2013-03-10 01:11:00,
2013-03-09 20:16:00,45.0,20.3,30.10,North,2,3.5,3.5,37,0.00,CLR,FEW,0.00,WeatherDisplay:10.37,2013-03-10 01:16:00,
2013-03-09 20:21:00,44.9,19.5,30.10,North,1,3.5,3.5,36,0.00,CLR,FEW,0.00,WeatherDisplay:10.37,2013-03-10 01:21:00,
2013-03-09 20:26:00,45.0,19.0,30.10,North,7,5.8,5.8,35,0.00,CLR,FEW,0.00,WeatherDisplay:10.37,2013-03-10 01:26:00,
2013-03-09 20:31:00,45.1,19.0,30.10,North,11,5.8,5.8,35,0.00,CLR,FEW,0.00,WeatherDisplay:10.37,2013-03-10 01:31:00,
2013-03-09 20:36:00,45.0,19.6,30.10,NNE,15,5.8,5.8,36,0.00,CLR,FEW,0.00,WeatherDisplay:10.37,2013-03-10 01:36:00,
2013-03-09 20:41:00,44.9,19.5,30.10,North,8,5.8,5.8,36,0.00,CLR,FEW,0.00,WeatherDisplay:10.37,2013-03-10 01:41:00,
2013-03-09 20:46:00,44.8,19.4,30.10,North,9,3.5,3.5,36,0.00,CLR,FEW,0.00,WeatherDisplay:10.37,2013-03-10 01:46:00,
2013-03-09 20:51:00,44.7,19.3,30.11,North,9,2.3,2.3,36,0.00,CLR,FEW,0.00,WeatherDisplay:10.37,2013-03-10 01:51:00,
2013-03-09 20:56:00,44.7,19.3,30.11,North,9,1.2,1.2,36,0.00,CLR,FEW,0.00,WeatherDisplay:10.37,2013-03-10 01:56:00,
2013-03-09 21:01:00,44.7,18.7,30.11,North,9,2.0,2.0,35,0.00,CLR,FEW,0.00,WeatherDisplay:10.37,2013-03-10 02:01:00,
2013-03-09 21:06:00,44.7,18.7,30.11,North,9,3.5,3.5,35,0.00,CLR,FEW,0.00,WeatherDisplay:10.37,2013-03-10 02:06:00,
2013-03-09 21:11:00,44.7,18.7,30.11,North,9,3.5,3.5,35,0.00,CLR,FEW,0.00,WeatherDisplay:10.37,2013-03-10 02:11:00,
2013-03-09 21:16:00,44.6,18.6,30.11,North,9,1.2,1.2,35,0.00,CLR,FEW,0.00,WeatherDisplay:10.37,2013-03-10 02:16:00,
2013-03-09 21:21:00,44.6,18.6,30.11,North,9,1.2,1.2,35,0.00,CLR,FEW,0.00,WeatherDisplay:10.37,2013-03-10 02:21:00,
2013-03-09 21:26:00,44.5,18.5,30.11,North,10,1.2,1.2,35,0.00,CLR,FEW,0.00,WeatherDisplay:10.37,2013-03-10 02:26:00,
2013-03-09 21:31:00,44.5,18.5,30.11,North,9,4.6,4.6,35,0.00,CLR,FEW,0.00,WeatherDisplay:10.37,2013-03-10 02:31:00,
2013-03-09 21:36:00,44.6,18.6,30.11,North,8,4.6,4.6,35,0.00,CLR,FEW,0.00,WeatherDisplay:10.37,2013-03-10 02:36:00,
2013-03-09 21:41:00,44.6,17.9,30.11,North,2,4.6,4.6,34,0.00,CLR,FEW,0.00,WeatherDisplay:10.37,2013-03-10 02:41:00,
2013-03-09 21:46:00,44.6,17.9,30.11,North,3,4.6,4.6,34,0.00,CLR,FEW,0.00,WeatherDisplay:10.37,2013-03-10 02:46:00,
2013-03-09 21:51:00,44.5,17.8,30.11,North,2,4.6,4.6,34,0.00,CLR,FEW,0.00,WeatherDisplay:10.37,2013-03-10 02:51:00,
2013-03-09 21:56:00,44.5,18.5,30.11,North,9,5.8,5.8,35,0.00,CLR,FEW,0.00,WeatherDisplay:10.37,2013-03-10 02:56:00,
2013-03-09 22:01:00,44.5,18.5,30.12,North,9,5.8,5.8,35,0.00,CLR,FEW,0.00,WeatherDisplay:10.37,2013-03-10 03:01:00,
2013-03-09 22:06:00,44.4,18.4,30.12,North,9,3.5,3.5,35,0.00,CLR,FEW,0.00,WeatherDisplay:10.37,2013-03-10 03:06:00,
2013-03-09 22:11:00,44.4,18.4,30.12,NNE,18,4.6,4.6,35,0.00,CLR,FEW,0.00,WeatherDisplay:10.37,2013-03-10 03:11:00,
2013-03-09 22:16:00,44.3,18.3,30.12,NNE,19,3.5,3.5,35,0.00,CLR,FEW,0.00,WeatherDisplay:10.37,2013-03-10 03:16:00,
2013-03-09 22:21:00,44.1,18.2,30.12,NNE,19,3.5,3.5,35,0.00,CLR,FEW,0.00,WeatherDisplay:10.37,2013-03-10 03:21:00,
2013-03-09 22:26:00,43.9,18.0,30.12,NNE,18,1.2,1.2,35,0.00,CLR,FEW,0.00,WeatherDisplay:10.37,2013-03-10 03:26:00,
2013-03-09 22:31:00,43.7,18.5,30.12,NNE,18,0.0,0.0,36,0.00,CLR,FEW,0.00,WeatherDisplay:10.37,2013-03-10 03:31:00,
2013-03-09 22:36:00,43.5,18.3,30.12,NNE,18,0.0,0.0,36,0.00,CLR,FEW,0.00,WeatherDisplay:10.37,2013-03-10 03:36:00,
2013-03-09 22:41:00,43.4,18.8,30.12,NNE,18,0.0,0.0,37,0.00,CLR,FEW,0.00,WeatherDisplay:10.37,2013-03-10 03:41:00,
2013-03-09 22:46:00,43.5,18.9,30.12,NNE,18,1.2,1.2,37,0.00,CLR,FEW,0.00,WeatherDisplay:10.37,2013-03-10 03:46:00,
2013-03-09 22:51:00,43.4,18.8,30.12,NNE,18,2.3,2.3,37,0.00,CLR,FEW,0.00,WeatherDisplay:10.37,2013-03-10 03:51:00,
2013-03-09 22:56:00,43.3,18.7,30.12,NNE,18,1.2,1.2,37,0.00,CLR,FEW,0.00,WeatherDisplay:10.37,2013-03-10 03:56:00,
2013-03-09 23:01:00,43.1,18.6,30.12,NNE,18,0.0,0.0,37,0.00,CLR,FEW,0.00,WeatherDisplay:10.37,2013-03-10 04:01:00,
2013-03-09 23:06:00,42.7,18.8,30.12,NNE,18,0.0,0.0,38,0.00,CLR,FEW,0.00,WeatherDisplay:10.37,2013-03-10 04:06:00,
2013-03-09 23:11:00,41.7,18.5,30.12,NNE,18,0.0,0.0,39,0.00,CLR,FEW,0.00,WeatherDisplay:10.37,2013-03-10 04:11:00,
2013-03-09 23:16:00,41.3,18.8,30.13,NNE,18,0.0,0.0,40,0.00,CLR,FEW,0.00,WeatherDisplay:10.37,2013-03-10 04:16:00,
2013-03-09 23:21:00,41.4,18.9,30.12,NNE,28,3.5,3.5,40,0.00,CLR,FEW,0.00,WeatherDisplay:10.37,2013-03-10 04:21:00,
2013-03-09 23:26:00,42.1,18.9,30.13,NNE,28,3.5,3.5,39,0.00,CLR,FEW,0.00,WeatherDisplay:10.37,2013-03-10 04:26:00,
2013-03-09 23:31:00,42.5,18.6,30.12,NE,46,4.0,4.0,38,0.00,CLR,FEW,0.00,WeatherDisplay:10.37,2013-03-10 04:31:00,
2013-03-09 23:36:00,42.4,18.6,30.13,NE,53,2.3,2.3,38,0.00,CLR,FEW,0.00,WeatherDisplay:10.37,2013-03-10 04:36:00,
2013-03-09 23:41:00,41.9,18.7,30.13,ENE,64,1.2,1.2,39,0.00,CLR,FEW,0.00,WeatherDisplay:10.37,2013-03-10 04:41:00,
2013-03-09 23:46:00,41.5,18.9,30.13,ENE,64,1.2,1.2,40,0.00,CLR,FEW,0.00,WeatherDisplay:10.37,2013-03-10 04:46:00,
2013-03-09 23:51:00,41.0,19.1,30.14,ENE,64,1.2,0.0,41,0.00,CLR,FEW,0.00,WeatherDisplay:10.37,2013-03-10 04:51:00,
2013-03-09 23:56:00,40.7,19.4,30.14,ENE,64,1.2,1.2,42,0.00,CLR,FEW,0.00,WeatherDisplay:10.37,2013-03-10 04:56:00,